[[{"header":{"parameterUnit":"m.s-1","parameterCategory":1,"la1":30.2991,"la2":30.254,"lo1":-89.0895,"lo2":-89.0444,"dy":0.0017,"dx":0.0017,"nx":28,"ny":28,"refTime":"2024-05-25T21:00:00:Z","depth":0,"parameterNumber":2,"parameterNumberName":"U-component_of_WINDS"},"data":[0,0,0,0,0,0,0,0,0,0,0,0,0,0,0,0,0,0,0,0,0,0,0,0,0,0,0,0,0,0,0,0,0,0,0,0,0,0,0,0,0,0,0,0,0,0,0,0,0,0,0,0,0,0,0,0,0,0,0.7955,0.7954,0,0.7943,0.7943,0.7943,0.7913,0.7913,0.7912,0.7911,0.79,0.79,0.79,0,0,0,0,0,0,0,0,0,0,0,0,0,0.7949,0.7949,0.7955,0.7954,0.7954,0.7943,0.7943,0.7943,0.7913,0.7913,0.7912,0.7911,0.79,0.79,0.79,0,0,0,0,0,0,0,0,0,0,0,0,0,0.7946,0.7949,0.7955,0.7938,0.7937,0.7943,0.7943,0.7943,0.7914,0.7913,0.7912,0.7911,0.7899,0.79,0.79,0.7922,0,0,0.7902,0.7902,0,0,0,0,0,0,0,0,0.7946,0.7946,0.7941,0.7939,0.7938,0.7929,0.7937,0.7936,0.7914,0.7922,0.7911,0.791,0.791,0.791,0.791,0.7922,0.7921,0.7902,0.7902,0.7902,0.7902,0,0,0,0,0,0,0,0.7946,0.7946,0.795,0.7941,0.7939,0.7931,0.7929,0.7937,0.7922,0.7921,0.7919,0.7918,0.7909,0.7909,0.7909,0.7921,0.7902,0.7902,0.7902,0.7902,0.7948,0.7949,0,0,0,0,0,0,0.7949,0.7947,0.795,0.795,0.794,0.7932,0.793,0.7933,0.7922,0.7919,0.7919,0.7917,0.7909,0.7909,0.7909,0.7932,0.7902,0.7902,0.7903,0.7947,0.7949,0.795,0,0,0,0,0,0,0.7949,0.795,0.7951,0.7948,0.7947,0.7933,0.7936,0.7933,0.7933,0.792,0.7917,0.7922,0.7908,0.7908,0.7919,0.7931,0.7903,0.7903,0.7946,0.7948,0.7949,0.798,0,0,0,0,0,0,0.7949,0.795,0.7958,0.7948,0.7948,0.7962,0.7937,0.7933,0.7934,0.7931,0.7922,0.7919,0.7907,0.7918,0.7919,0.7931,0.7903,0.7945,0.7947,0.7949,0.7978,0.7982,0.7986,0,0,0,0,0,0.7949,0.7968,0.7959,0.796,0.7958,0.7962,0.7962,0.7948,0.7935,0.7943,0.7934,0.792,0.793,0.7919,0.792,0.7933,0.7944,0.7946,0.7948,0.7976,0.7981,0.7986,0,0,0,0,0,0,0.798,0.7966,0.7956,0.7973,0.7969,0.7957,0.7967,0.7955,0.7954,0.7952,0.7934,0.7932,0.7945,0.794,0.7929,0.7952,0.7935,0.7937,0.7955,0.796,0.7964,0.7965,0.7904,0,0,0,0,0,0.7989,0.7994,0.7982,0.7997,0.7996,0.7982,0.7983,0.7973,0.7968,0.7966,0.7959,0.7955,0.7956,0.7958,0.796,0.7977,0.7974,0.7986,0.799,0.7994,0.7996,0.8003,0.8008,0.7957,0.7957,0.7957,0,0,0.8007,0.8,0.8005,0.8003,0.7999,0.8004,0.7981,0.7988,0.7991,0.7967,0.7976,0.7971,0.7965,0.7979,0.7984,0.7975,0.8009,0.7997,0.8,0.8,0.8006,0.8011,0.8015,0.7958,0.7958,0.7958,0,0,0.8043,0.8038,0.805,0.8046,0.804,0.8031,0.8034,0.8024,0.8019,0.8028,0.801,0.8013,0.8018,0.8014,0.8013,0.8045,0.8031,0.8046,0.8068,0.8075,0.8079,0.8083,0.8093,0.8097,0.8049,0.8049,0.8049,0,0.8066,0.8073,0.8058,0.8065,0.8064,0.8043,0.8054,0.8051,0.8046,0.8046,0.8036,0.804,0.8034,0.8046,0.8054,0.8054,0.8056,0.8047,0.808,0.8084,0.8086,0.8096,0.81,0.805,0.805,0.805,0.805,0,0.8101,0.8106,0.8116,0.8111,0.8112,0.8121,0.8107,0.8109,0.8098,0.809,0.8098,0.8091,0.809,0.8092,0.8082,0.8102,0.8096,0.8083,0.8065,0.8093,0.8102,0.8106,0.8053,0.8052,0.8052,0.8051,0,0,0.8156,0.8142,0.8145,0.8142,0.8134,0.8137,0.8145,0.8143,0.8145,0.8142,0.8148,0.8151,0.8139,0.8137,0.8126,0.8133,0.8158,0.8119,0.8119,0.8125,0.8178,0.8187,0.8191,0.8149,0.8149,0.815,0.8178,0,0.8188,0.8201,0.8187,0.8202,0.8206,0.8185,0.8192,0.8187,0.8179,0.8181,0.8172,0.8174,0.8158,0.8157,0.8163,0.8153,0.8168,0.8151,0.8152,0.8153,0.8153,0.8196,0.8205,0.8232,0.8181,0.8182,0.8182,0,0.8227,0.8225,0.8241,0.823,0.8231,0.8237,0.8234,0.8236,0.823,0.8223,0.8221,0.8208,0.8214,0.8197,0.8204,0.8193,0.8193,0.8188,0.8189,0.8188,0.8168,0.8194,0.8241,0.8244,0.8188,0.8187,0.8187,0,0.8264,0.8265,0.8274,0.8272,0.826,0.8265,0.826,0.8253,0.8252,0.825,0.8249,0.8247,0.8246,0.8245,0.8231,0.822,0.824,0.8221,0.8234,0.8234,0.8238,0.8238,0.8283,0.824,0.824,0.824,0.824,0,0.83,0.831,0.829,0.8296,0.8306,0.829,0.83,0.8293,0.8287,0.829,0.8272,0.8276,0.8258,0.8259,0.8248,0.8255,0.8255,0.825,0.8246,0.825,0.8251,0.8249,0.8246,0.8241,0.8241,0.824,0.824,0,0.8342,0.833,0.8338,0.8326,0.8323,0.833,0.832,0.8324,0.8314,0.8319,0.8319,0.8304,0.8304,0.8291,0.8289,0.8281,0.8292,0.8287,0.8294,0.8292,0.8305,0.8303,0.835,0.8354,0.8309,0.831,0.831,0,0.8366,0.8373,0.8361,0.8362,0.8358,0.836,0.8359,0.8343,0.8343,0.8336,0.834,0.8339,0.8337,0.8339,0.8328,0.8326,0.8319,0.8335,0.8318,0.8322,0.8317,0.8317,0.8317,0.8339,0.8339,0.834,0.834,0,0.8409,0.8402,0.8402,0.8399,0.8398,0.8396,0.8391,0.8393,0.8376,0.8376,0.8376,0.8375,0.8372,0.8371,0.8367,0.8361,0.8347,0.8346,0.8348,0.8352,0.8355,0.8352,0.8303,0.8344,0.8344,0.8344,0.8343,0.8343,0.8441,0.8446,0.8438,0.8438,0.8433,0.843,0.8432,0.8423,0.8423,0.8419,0.841,0.8411,0.8404,0.8396,0.8392,0.8392,0.8384,0.8388,0.8389,0.8389,0.8391,0.8356,0.8392,0.8391,0.8391,0.8391,0.8391,0,0.8482,0.8476,0.8476,0.847,0.847,0.8457,0.8452,0.8452,0.8454,0.8448,0.8446,0.8445,0.8444,0.8433,0.8429,0.8432,0.8425,0.8431,0.843,0.8429,0.84,0.8397,0.8437,0.8437,0.8437,0.8437,0.8437,0.8437,0.8503,0.851,0.8502,0.8505,0.8499,0.85,0.8498,0.8494,0.8489,0.8489,0.8488,0.848,0.8472,0.8468,0.8465,0.8462,0.8461,0.8469,0.8464,0.8436,0.8431,0.8427,0.8425,0.8469,0.8469,0.8493,0.8493,0.8493]},{"header":{"parameterUnit":"m.s-1","parameterCategory":1,"la1":30.2991,"la2":30.254,"lo1":-89.0895,"lo2":-89.0444,"dy":0.0017,"dx":0.0017,"nx":28,"ny":28,"refTime":"2024-05-25T21:00:00:Z","depth":0,"parameterNumber":3,"parameterNumberName":"V-component_of_WINDS"},"data":[0,0,0,0,0,0,0,0,0,0,0,0,0,0,0,0,0,0,0,0,0,0,0,0,0,0,0,0,0,0,0,0,0,0,0,0,0,0,0,0,0,0,0,0,0,0,0,0,0,0,0,0,0,0,0,0,0,0,4.8328,4.8329,0,4.8461,4.8462,4.8464,4.844,4.8438,4.8436,4.8433,4.8563,4.8568,4.8574,0,0,0,0,0,0,0,0,0,0,0,0,0,4.8045,4.8051,4.8327,4.8329,4.8331,4.8461,4.8462,4.8464,4.8441,4.8438,4.8435,4.8432,4.8561,4.8568,4.8574,0,0,0,0,0,0,0,0,0,0,0,0,0,4.8172,4.8052,4.8327,4.8335,4.8337,4.846,4.8462,4.8465,4.8441,4.8438,4.8434,4.8431,4.8559,4.8567,4.8575,4.8697,0,0,4.8601,4.8605,0,0,0,0,0,0,0,0,4.8165,4.8182,4.8332,4.8335,4.8337,4.843,4.841,4.8542,4.8442,4.8401,4.8433,4.8429,4.8521,4.8532,4.8565,4.8703,4.8709,4.8602,4.8607,4.8611,4.8613,0,0,0,0,0,0,0,4.8156,4.8176,4.838,4.8334,4.8337,4.8329,4.8343,4.8435,4.8479,4.8405,4.8403,4.842,4.8522,4.8557,4.8568,4.8711,4.8602,4.8609,4.8614,4.8618,4.8954,4.8958,0,0,0,0,0,0,4.8146,4.8169,4.8376,4.8384,4.8241,4.8337,4.8353,4.8404,4.8478,4.8486,4.8423,4.8418,4.8544,4.8558,4.8572,4.872,4.861,4.8618,4.8623,4.895,4.8955,4.8959,0,0,0,0,0,0,4.814,4.8165,4.837,4.8276,4.8302,4.8346,4.8403,4.8408,4.8443,4.8492,4.8499,4.8451,4.8542,4.856,4.8667,4.8724,4.8622,4.863,4.8946,4.8952,4.8957,4.9015,0,0,0,0,0,0,4.8132,4.8163,4.8211,4.8278,4.8307,4.8465,4.8407,4.8413,4.8459,4.8454,4.852,4.8527,4.8541,4.8654,4.8675,4.8733,4.8636,4.8941,4.8949,4.8955,4.9008,4.9022,4.9034,0,0,0,0,0,4.8122,4.8221,4.8214,4.8239,4.8369,4.8468,4.8485,4.85,4.8464,4.8512,4.8542,4.8525,4.8714,4.8665,4.8688,4.875,4.8937,4.8946,4.8955,4.9003,4.902,4.9034,0,0,0,0,0,0,4.8157,4.823,4.8223,4.8346,4.8402,4.8464,4.8525,4.8517,4.8582,4.8575,4.8589,4.8604,4.8712,4.8741,4.8686,4.8871,4.882,4.8834,4.8849,4.8865,4.8878,4.8868,4.8643,0,0,0,0,0,4.818,4.8257,4.8315,4.8418,4.8446,4.8481,4.8525,4.8532,4.8589,4.8611,4.865,4.8704,4.8775,4.8821,4.889,4.9012,4.9026,4.9066,4.9079,4.9089,4.9101,4.9167,4.9186,4.8988,4.8988,4.8988,0,0,4.8226,4.8275,4.8323,4.8426,4.847,4.8547,4.8501,4.8584,4.8641,4.8623,4.8727,4.8757,4.8817,4.8932,4.8985,4.896,4.9159,4.9101,4.9109,4.9115,4.9178,4.9197,4.9214,4.8994,4.8993,4.8992,0,0,4.8351,4.8396,4.8488,4.8533,4.86,4.8623,4.8644,4.8709,4.8729,4.8833,4.8821,4.8887,4.901,4.9054,4.9092,4.9233,4.9219,4.9254,4.9322,4.9386,4.9402,4.9416,4.9466,4.9483,4.9266,4.9266,4.9266,0,4.84,4.8518,4.8534,4.862,4.8665,4.8655,4.8746,4.8788,4.8873,4.8904,4.8876,4.903,4.907,4.9195,4.9229,4.926,4.9284,4.9247,4.9399,4.9413,4.9426,4.9474,4.9492,4.927,4.9269,4.9269,4.9269,0,4.8574,4.8656,4.8721,4.8807,4.8859,4.8947,4.8975,4.9025,4.9027,4.9052,4.9158,4.9205,4.9283,4.9313,4.9315,4.9438,4.9421,4.9396,4.9345,4.9449,4.9493,4.9512,4.9275,4.9274,4.9273,4.9272,0,0,4.8725,4.8819,4.8843,4.8881,4.8955,4.9017,4.9103,4.9182,4.9225,4.9283,4.9355,4.9459,4.9437,4.948,4.9487,4.9543,4.9651,4.9511,4.9513,4.9535,4.9789,4.9808,4.9829,4.9643,4.9646,4.9649,4.9784,0,4.8857,4.9013,4.9029,4.9167,4.9242,4.9233,4.9308,4.936,4.9385,4.945,4.9476,4.955,4.9515,4.9541,4.9597,4.9627,4.9702,4.9617,4.9708,4.9711,4.9693,4.9852,4.9873,4.9998,4.9801,4.9804,4.9807,0,4.9031,4.9098,4.9244,4.9307,4.9339,4.9407,4.9479,4.9543,4.9601,4.9615,4.9664,4.9663,4.9749,4.9695,4.9813,4.9755,4.9792,4.9812,4.9818,4.9827,4.9765,4.9865,5.0038,5.0056,4.9835,4.9832,4.983,0,4.9127,4.9252,4.9356,4.9389,4.9465,4.9513,4.9546,4.9601,4.9647,4.9709,4.9739,4.981,4.9849,4.9903,4.992,4.9879,5.0038,4.9985,5.005,5.005,5.0085,5.0082,5.0265,5.0109,5.0109,5.0108,5.0108,0,4.9272,4.9361,4.94,4.9464,4.9563,4.9581,4.9678,4.9708,4.9757,4.9825,4.982,4.9883,4.9902,4.9968,4.9982,5.0078,5.0095,5.0107,5.011,5.0108,5.0107,5.0133,5.0125,5.0113,5.0112,5.0111,5.011,0,4.9395,4.9425,4.9538,4.9601,4.9619,4.9689,4.9742,4.9802,4.9826,4.9912,4.9933,4.997,5.0047,5.007,5.0162,5.0172,5.0284,5.0278,5.0265,5.0266,5.033,5.0324,5.0537,5.0565,5.039,5.0392,5.0393,0,4.9486,4.9556,4.9627,4.9673,4.971,4.9784,4.9831,4.985,4.9899,4.997,5.0021,5.0098,5.0161,5.0285,5.0318,5.0388,5.0384,5.0454,5.0395,5.0391,5.0385,5.0381,5.0388,5.0465,5.0467,5.0469,5.047,0,4.9645,4.9656,4.9726,4.9801,4.9859,4.9918,4.9975,5.0012,5.0039,5.0094,5.0174,5.0223,5.0318,5.0394,5.0465,5.0497,5.0488,5.0488,5.0507,5.0506,5.0496,5.0502,5.0296,5.0483,5.0482,5.0481,5.048,5.048,4.9755,4.9816,4.9876,4.9954,4.9999,5.0052,5.0112,5.0145,5.0213,5.0294,5.03,5.0386,5.0441,5.0536,5.0571,5.0638,5.0617,5.0644,5.0651,5.0658,5.0663,5.0485,5.065,5.065,5.065,5.0649,5.0649,0,4.9913,4.9951,5.0023,5.0104,5.0165,5.0153,5.0215,5.0266,5.0343,5.0396,5.0458,5.055,5.0623,5.0663,5.0736,5.0781,5.0779,5.08,5.0796,5.0804,5.0678,5.0654,5.08,5.08,5.08,5.08,5.08,5.08,5.0002,5.0105,5.0123,5.0247,5.0284,5.0371,5.0408,5.0456,5.0499,5.0602,5.0664,5.069,5.0737,5.0814,5.088,5.0889,5.0916,5.0939,5.0946,5.0828,5.0813,5.0798,5.0776,5.0945,5.0945,5.1067,5.1068,5.1069]}]]